"Pseudo-MPEC" for C02ADN2

Created 2019 Jan 12 22:18:10 UT using Find_Orb

Click here for an explanation of pseudo-MPECs

 
 Astrometry: 
     C02ADN2  C2019 01 02u3tt*M#/p6Astrometry7tRXJs,Ic5Vy34X8W5IR06O0eVgtMX1!F51
     C02ADN2  C2019 01 02+S+s1D+Fm71]=`H(p5VwmAyWd%nmTne:Gqg2oLYcjy[*G=7tx^;QF51
     C02ADN2  C2019 01 11.42336 10 30 24.82 -09 08 33.3    ~1BBI 19.3 GVNEOCPG96
     C02ADN2  C2019 01 11.42848 10 30 23.22 -09 08 08.2    ~1BBI 19.2 GVNEOCPG96
     C02ADN2  C2019 01 11.43359 10 30 21.62 -09 07 42.9    ~1BBI 19.3 GVNEOCPG96
     C02ADN2  C2019 01 11.43869 10 30 20.03 -09 07 18.1    ~1BBI 19.1 GVNEOCPG96
     C02ADN2  C2019 01 11.51851 10 29 55.19 -09 00 46.0    ~1BDI 20.0 GVNEOCP703
     C02ADN2  C2019 01 11.52079 10 29 54.53 -09 00 35.5    ~1BDI 19.1 GVNEOCP703
     C02ADN2  C2019 01 11.52307 10 29 53.88 -09 00 22.8    ~1BDI 19.5 GVNEOCP703
     C02ADN2  C2019 01 113mX4dG3Lredacted;ZO6$(q.P4bAb:%$EO^/:eN'X`;B`bU3v^#gT05
     C02ADN2  C2019 01 11%?q]?GAN;,VB?=]aWqDv/GwvO_Gld9K^1bW2]_Miob3,Jj,u5)^6T05
     C02ADN2  C2019 01 11.52612 10 29 52.89 -09 00 07.3    ~1BDI 19.9 GVNEOCP703
     C02ADN2  C2019 01 11.52897 10 29 52.05 -08 59 55.0    ~1BDI       VNEOCPI52
     C02ADN2  C2019 01 11^v7vay-s\lF%bohu!lf.A!k%7K:WjQi(MZX4Yea;X-A@VcWU\ev7T05
     C02ADN2  C2019 01 11.53326 10 29 50.68 -08 59 33.6    ~1BDI 19.2 GVNEOCPI52
     C02ADN2  C2019 01 11LG).tdgbCRI9d04+fw!wR7=(NM]V/Sp[CN0jclickacmT'#h2CegT05
     C02ADN2  C2019 01 11.53755 10 29 49.41 -08 59 12.3    ~1BDI 18.7 GVNEOCPI52
     C02ADN2  C2019 01 11.53773 10 29 49.32 -08 59 11.5    ~1BDI 19.7 GVNEOCPI52
     C02ADN2  C2019 01 11e]ct6Y/kYSswcd9Wm.56tX!SM@kLMWc6QToaE):ZW\M8:uO1taf6T05
     C02ADN2  C2019 01 11q)NI]wd\XU;57h'+='4Nvhere;lE.#+N;W2iZIgD`G;bk,+M8HTLT05
     C02ADN2  C2019 01 11-)vd;eDdRBJx?CLGpJKDG[!m^HG?/P;skZq0g94A7T][Z_QR/v08T05
     C02ADN2 KC2019 01 11/Ud]ETd2nyS_-jtg)Ls8(o@GYqG^@09+mm*XJWI/m*+w0XilMl3NL29
     C02ADN2 KC2019 01 11Vc-Jmc\c39fwWZ[1ktT]for!J*bYCgMP[$xx`a2SNcdbDZMi.'c(L29
     C02ADN2 KC2019 01 12ZT+eicch#$TVRqtn;TA^bIdL+o?mcxwU^xG%f%^t[jk0_`dZDM]c104
     C02ADN2 KC2019 01 12M4M\riZsI!x-O4QAD6'.q5.iBwUo2+vXXr!lF$GDewX=rVSSe$YT104
     C02ADN2 KC2019 01 12PcBQuT#v#!HHfyZ)explanationq77$Vo8d\:;FLaQi)(]_o8cJ:104
     C02ADN2  C2019 01 12.48611 10 25 24.14 -07 43 23.8    ~1CDI 19.5 GVNEOCPG96
     C02ADN2  C2019 01 12.49124 10 25 22.61 -07 42 59.8    ~1CDI 19.4 GVNEOCPG96
     C02ADN2  C2019 01 12.49638 10 25 21.09 -07 42 35.3    ~1CDI 19.2 GVNEOCPG96
     C02ADN2  C2019 01 12.50152 10 25 19.55 -07 42 11.1    ~1CDI 19.0 GVNEOCPG96
     C02ADN2  C2019 01 12.54942 10 25 05.46 -07 38 24.3    ~1CEI 18.8 GVNEOCPI52
     C02ADN2  C2019 01 12.54968 10 25 05.40 -07 38 23.2    ~1CEI 18.8 GVNEOCPI52
     C02ADN2  C2019 01 12.54995 10 25 05.31 -07 38 22.6    ~1CEI 19.1 GVNEOCPI52
     C02ADN2  C2019 01 12.55022 10 25 05.26 -07 38 20.8    ~1CEI 18.9 GVNEOCPI52

Station data:
(104) San Marcello Pistoiese  (N44.063037 E10.804200)  Italy. 0.40-m f/5
   reflector.
(703) Catalina Sky Survey  (N32.417006 W110.732640)  US/Arizona.  Observers
   B. M. Africano, E. J. Christensen, G. A. Farneth, D. C. Fuls, A. R. Gibbs,
   A. D. Grauer, H. Groeller, J. A. Johnson, R. A. Kowalski, S. M. Larson, G.
   J. Leonard, R. L. Seaman, F. C. Shelly. 0.68 m Schmidt + 10K CCD.
(F51) Pan-STARRS 1, Haleakala  (N20.707235 W156.255910)  US/Hawaii.
   Observers N. Primak, A. Schultz, S. Watters, J. Thiel, T. Goggia. Measurer
   PS1 Science Consortium. 1.8-m Ritchey-Chrétien + CCD.
(G96) Mt. Lemmon Survey  (N32.442754 W110.788720)  US/Arizona.  Observers B.
   M. Africano, E. J. Christensen, G. A. Farneth, D. C. Fuls, A. R. Gibbs, A.
   D. Grauer, H. Groeller, J. A. Johnson, R. A. Kowalski, S. M. Larson, G. J.
   Leonard, R. L. Seaman, F. C. Shelly. 1.5-m reflector + 10K CCD.
(I52) Steward Observatory, Mt. Lemmon Station  (N32.442547 W110.788920)
   US/Arizona.  Observers B. M. Africano, E. J. Christensen, G. A. Farneth,
   D. C. Fuls, A. R. Gibbs, A. D. Grauer, H. Groeller, J. A. Johnson, R. A.
   Kowalski, S. M. Larson, G. J. Leonard, R. L. Seaman, F. C. Shelly. 1.0-m
   reflector + CCD.
(L29) Drebach-South Observatory, Windhoek  (S23.460102 E18.016900)  Namibia.
(T05) ATLAS-HKO, Haleakala  (N20.707573 W156.257010)  US/Hawaii.  Observers
   L. Denneau, A. Heinze, H. Weiland, J. Tonry, H. Flewelling, A.
   Fitzsimmons, D. Young. Measurers L. Denneau, A. Heinze, J. Tonry. 0.5-m
   f/2.0 Schmidt + CCD.

Orbital elements:  C02ADN2
   Perihelion 2018 Nov 16.509170 +/- 0.0188 TT = 12:13:12 (JD 2458439.009170)
Epoch 2019 Jan 12.0 TT = JDT 2458495.5   Earth MOID: 0.0086   Ma: 0.0068
M  30.00092526 +/- 0.10             (J2000 ecliptic)          AutoNEOCP
n   0.53107602 +/- 0.00162          Peri.  253.20055 +/- 0.0020
a   1.51018998 +/- 0.00306          Node   148.76680 +/- 0.014
e   0.4541216 +/- 0.00142           Incl.    3.79657 +/- 0.013
P   1.86/677.86d           H 22.1   G  0.15   U  8.4  
q 0.82437998 +/- 0.000473    Q 2.19599998 +/- 0.00657
From 34 observations 2019 Jan. 2-12; mean residual 0".44
Residuals in arcseconds: 
190102 F51  .03-  .00     190111 I52  .42+  .42-    190112 104  .36-  .58-    
190102 F51  .01+  .02-    190111 T05  .15-  .57+    190112 104  .13-  .72-    
190111 G96  .05-  .01-    190111 I52  .37-  .13-    190112 G96  .00   .12+    
190111 G96  .07-  .02-    190111 T05  .53-  .40+    190112 G96  .08-  .11-    
190111 G96  .13-  .22+    190111 I52  .29+  .07+    190112 G96  .01+  .12+    
190111 G96  .09-  .01+    190111 I52  .23-  .02-    190112 G96  .23-  .04+    
190111 703  .68-  .01-    190111 T05  .13+  1.1+    190112 I52  .23-  .51+    
190111 703  .05-  .72-    190111 T05  .31-  .18-    190112 I52  .01+  .38+    
190111 703  .71+  .77+    190111 T05  .51+  .30-    190112 I52  .16-  .29-    
190111 T05  .39+  .83-    190111 L29  1.0+  .50+    190112 I52  .27+  .23+    
190111 T05  .73+  .14-    190111 L29  .89-  1.0-    
190111 703  .06-  1.3+    190112 104  .36+  .10-    

Ephemerides (geocentric):
Date (UTC) HH   RA              Dec         delta   r     elong  mag " sig PA
---- -- -- --  -------------   -----------  ------ ------ -----  --- ---- ---
2019 01 12 22  10 23 28.042   -07 09 13.73  .13481 1.0748 129.8 19.6 .088   8
2019 01 12 23  10 23 16.799   -07 06 01.23  .13496 1.0751 129.9 19.6 .088   8
2019 01 13 00  10 23 05.577   -07 02 49.05  .13511 1.0754 130.0 19.6 .087   8
2019 01 13 01  10 22 54.374   -06 59 37.19  .13526 1.0757 130.1 19.6 .086   7
2019 01 13 02  10 22 43.191   -06 56 25.66  .13541 1.0760 130.2 19.6 .085   7
2019 01 13 03  10 22 32.027   -06 53 14.45  .13556 1.0762 130.4 19.6 .085   7
2019 01 13 04  10 22 20.882   -06 50 03.56  .13571 1.0765 130.5 19.6 .084   7
2019 01 13 05  10 22 09.757   -06 46 52.98  .13586 1.0768 130.6 19.6 .083   6
2019 01 13 06  10 21 58.652   -06 43 42.73  .13601 1.0771 130.7 19.6 .083   6
2019 01 13 07  10 21 47.566   -06 40 32.80  .13616 1.0774 130.8 19.6 .082   6
2019 01 13 08  10 21 36.499   -06 37 23.19  .13632 1.0777 130.9 19.6 .082   5
2019 01 13 09  10 21 25.451   -06 34 13.90  .13647 1.0780 131.0 19.6 .081   5
2019 01 13 10  10 21 14.422   -06 31 04.93  .13662 1.0783 131.1 19.6 .080   4
2019 01 13 11  10 21 03.412   -06 27 56.27  .13677 1.0785 131.2 19.6 .080   4
2019 01 13 12  10 20 52.422   -06 24 47.94  .13692 1.0788 131.3 19.6 .080   3
2019 01 13 13  10 20 41.450   -06 21 39.92  .13708 1.0791 131.4 19.6 .079   3
2019 01 13 14  10 20 30.497   -06 18 32.22  .13723 1.0794 131.5 19.6 .079   2
2019 01 13 15  10 20 19.564   -06 15 24.84  .13738 1.0797 131.6 19.6 .078   2
2019 01 13 16  10 20 08.649   -06 12 17.77  .13754 1.0800 131.8 19.6 .078   1
2019 01 13 17  10 19 57.752   -06 09 11.02  .13769 1.0803 131.9 19.6 .078   0
2019 01 13 18  10 19 46.875   -06 06 04.59  .13784 1.0806 132.0 19.6 .077   0
2019 01 13 19  10 19 36.016   -06 02 58.47  .13800 1.0809 132.1 19.6 .077 179
2019 01 13 20  10 19 25.176   -05 59 52.67  .13815 1.0811 132.2 19.6 .077 178
2019 01 13 21  10 19 14.354   -05 56 47.18  .13830 1.0814 132.3 19.6 .077 178
2019 01 13 22  10 19 03.551   -05 53 42.01  .13846 1.0817 132.4 19.6 .077 177
2019 01 13 23  10 18 52.766   -05 50 37.15  .13861 1.0820 132.5 19.6 .077 176
2019 01 14 00  10 18 42.000   -05 47 32.61  .13877 1.0823 132.6 19.6 .077 175
2019 01 14 01  10 18 31.252   -05 44 28.38  .13892 1.0826 132.7 19.6 .077 174
2019 01 14 02  10 18 20.523   -05 41 24.46  .13908 1.0829 132.8 19.6 .077 173
2019 01 14 03  10 18 09.811   -05 38 20.86  .13924 1.0832 132.9 19.6 .077 173
2019 01 14 04  10 17 59.118   -05 35 17.57  .13939 1.0835 133.0 19.6 .077 172
2019 01 14 05  10 17 48.443   -05 32 14.59  .13955 1.0837 133.1 19.6 .077 171
2019 01 14 06  10 17 37.787   -05 29 11.92  .13970 1.0840 133.2 19.6 .078 170
2019 01 14 07  10 17 27.148   -05 26 09.57  .13986 1.0843 133.3 19.6 .078 169
2019 01 14 08  10 17 16.527   -05 23 07.52  .14002 1.0846 133.4 19.6 .078 168
2019 01 14 09  10 17 05.925   -05 20 05.79  .14017 1.0849 133.6 19.6 .079 167
2019 01 14 10  10 16 55.340   -05 17 04.36  .14033 1.0852 133.7 19.6 .079 166
2019 01 14 11  10 16 44.773   -05 14 03.25  .14049 1.0855 133.8 19.6 .080 165
2019 01 14 12  10 16 34.224   -05 11 02.45  .14065 1.0858 133.9 19.6 .080 164
2019 01 14 13  10 16 23.693   -05 08 01.95  .14081 1.0861 134.0 19.6 .081 163
2019 01 14 14  10 16 13.179   -05 05 01.77  .14096 1.0863 134.1 19.6 .082 162
2019 01 14 15  10 16 02.683   -05 02 01.89  .14112 1.0866 134.2 19.6 .082 161
2019 01 14 16  10 15 52.205   -04 59 02.32  .14128 1.0869 134.3 19.6 .083 160
2019 01 14 17  10 15 41.745   -04 56 03.06  .14144 1.0872 134.4 19.6 .084 159
2019 01 14 18  10 15 31.302   -04 53 04.10  .14160 1.0875 134.5 19.6 .085 158
2019 01 14 19  10 15 20.876   -04 50 05.46  .14176 1.0878 134.6 19.6 .086 157
2019 01 14 20  10 15 10.468   -04 47 07.12  .14192 1.0881 134.7 19.6 .087 157
2019 01 14 21  10 15 00.078   -04 44 09.08  .14208 1.0884 134.8 19.6 .088 156